星链-31223 (STARLINK-31223 )

导读

STARLINK-31223是美国SpaceX星链互联网卫星星座中的一员,于2024年1月29日发射入轨。作为Starlink低地球轨道卫星群的组成部分,它承担着为全球提供高速低延迟宽带互联网服务的任务,尤其服务偏远地区和网络基础设施薄弱区域,进一步扩充了星链星座的服务覆盖范围与网络容量,推进SpaceX全球卫星互联网组网进程。

基本信息
目录编号:
58865
目录名称:
STARLINK-31223
国际标识:
2024-019N
轨道中心:
EARTH
卫星名称:
星链-31223
卫星全名:
星链-31223 (STARLINK-31223 )
卫星状态:
在轨 (已飞行956 天)
发射日期:
2024-01-29 UTC
国别 :
美国 (US)
星等 :
--
该卫星已列入 空间交会检测服务 Space Conjunction Data Service (SCDS) ,当前飞行风险评估等级: 无高风险
轨道信息
数据来源 国际轨道数据 AOE轨道数据
星历时间 2026-09-11T11:14:27+0800
15小时前
查看轨道信息
2026-09-06T06:00:00+0800
5天前
查看轨道信息
半长轴 6861.193km 6861.224km
偏心率 0.0001347 0.0000029
轨道倾角 43.004° 43.002°
近地点辐角 273.005° 267.348°
升交点赤经 281.651° 311.121°
平近点角 87.064° 161.755°
近地点 482.131km 483.067km
远地点 483.981km 483.107km
周期 94.267分钟 94.268分钟
每日圈数 15.275779 15.275676
详细信息
固有亮度:
5
最大亮度:
0.3
卫星平台:
Starlink v2.0 mini
覆盖范围:
全球
运营商:
太空探索技术公司
运营商所在国:
美国
制造商(研发单位):
太空探索技术公司
制造商所在国:
美国
使用方式:
暂无
卫星简介
星链(Starlink)计划是由太空探索技术公司(SpaceX)提出的一个巨型低轨卫星互联网星座项目,计划在2019年至2024年间在太空搭建由约1.2万颗卫星组成的“星链”网络,其中1584颗将部署在地球上空550千米处的近地轨道,并从2020年开始工作。该卫星仍在工作。
2D轨道图
3D轨道图
轨道高度分析图
轨道倾角分析图
轨道综合分析图
查看轨道综合分析图
与全量物体交会距离演化趋势
与全量物体交会风险概率演化趋势